Regional Weather Roundup
Issued by NWS Wakefield, VA

Home | Current Version | Previous Version | Graphics & Text | Print | Product List | Glossary On
Versions: 1 2 3 4 5 6 7 8 9 10 11 12 13 14 15 16 17 18 19 20 21 22 23 24 25 26 27 28 29 30 31 32 33 34 35 36 37 38 39 40 41 42 43 44 45 46 47 48 49 50
000
ASUS41 KAKQ 050015
RWRAKQ

REGIONAL WEATHER ROUNDUP
NATIONAL WEATHER SERVICE WAKEFIELD VA
800 PM EDT SAT JUL 04 2015

Note: "fair" indicates few or no clouds below 12,000 feet with no
significant weather and/or obstructions to visibility. * = Denotes
station may not report precipitation (e.g., rain,snow,etc.),
thunder or fog.

VAZ042-051-052>054-056-050100-
NORTHERN VIRGINIA

CITY           SKY/WX    TMP DP  RH WIND       PRES   REMARKS
WASH NATIONAL  MOCLDY    75  72  88 S3        29.96R
DULLES         CLOUDY    73  70  90 SE3       29.96R
FORT BELVOIR   MOCLDY    72  70  93 CALM      29.95S
QUANTICO       MOCLDY    75  69  81 NE7       29.96R
FREDERICKSBRG* MOCLDY    76  72  86 CALM      29.95R
STAFFORD*      CLOUDY    73  70  90 CALM      29.99S
WARRENTON      MOCLDY    74  73  96 SE3       29.97R
CULPEPER*      MOCLDY    72  70  94 CALM      29.97R
MANASSAS*      CLEAR     73  72  94 CALM        N/A
LEESBURG*      CLOUDY    75  72  88 NE3       29.98R
WINCHESTER     MOCLDY    77  68  73 E5        29.97R
FRONT ROYAL*   FAIR      73  68  83 CALM      29.96R
LURAY*         FAIR      77  72  83 CALM      29.97R
$$

VAZ048-049-060>072-079>083-050100-
CENTRAL AND SOUTH CENTRAL VIRGINIA

CITY           SKY/WX    TMP DP  RH WIND       PRES   REMARKS
RICHMOND       MOCLDY    72  69  90 S7        29.95F
CHESTERFIELD*  NOT AVBL
PETERSBURG*    CLOUDY    73  72  95 NE6       29.98R
HANOVER        MOCLDY    72  69  90 SW6       29.97R
TAPPAHANNOCK*  TSTM      73  67  81 NE8       29.97R
QUINTON*       NOT AVBL
CHARLOTTSVILLE PTCLDY    75  69  81 NE7       29.97R
GORDONSVILLE*  MOCLDY    73  72  94 N3        29.97R
ORANGE*        PTCLDY    75  70  83 CALM      29.98R
LOUISA*        PTCLDY    75  72  88 CALM      29.96R
BUMPASS*       FAIR      76  72  87 N6        29.96R
FARMVILLE*     PTCLDY    78  70  76 SW3       29.95R
CREWE*         FAIR      78  71  81 CALM      29.96R
FORT PICKETT*  CLOUDY    78  70  77 CALM      29.97R
CHASE CITY*    FAIR      77  77 100 CALM      29.98R
CLARKSVILLE*   FAIR      73  73 100 CALM      29.97R
SOUTH HILL*    PTCLDY    76  70  83 CALM      30.03R
LAWRENCEVILLE* NOT AVBL
EMPORIA*         N/A     79  72  78 CALM      29.98R
$$

VAZ088>098-050100-
SOUTHEAST VIRGINIA

CITY           SKY/WX    TMP DP  RH WIND       PRES   REMARKS
NORFOLK        PTCLDY    81  72  74 SW8       29.93R
VIRGINIA BEACH MOCLDY    83  72  69 SW9       29.93R
NORFOLK NAVAL  MOCLDY    82  72  71 SW7       29.95R
WEST POINT*    CLOUDY    78  70  78 W9        29.95R
SALUDA*        FAIR      76  74  96 CALM      29.92S
NEWPORT NEWS   PTCLDY    82  71  69 W6        29.93R
LANGLEY AFB    CLEAR     81  72  75 SW7       29.92R
FORT EUSTIS    MOCLDY    82  74  78 W3        29.92R
WILLIAMSBURG*  PTCLDY    84  73  70 W13G20    29.95R
HR EXEC AP*    FAIR      81  73  78 SW6       29.96R
FRANKLIN*      CLEAR     81  72  74 SW6       29.96R
WAKEFIELD      CLOUDY    79  68  69 NW12G20   29.97R
$$

VAZ020-022-025-037-045-050100-
WEST CENTRAL AND SOUTHWEST VIRGINIA

CITY           SKY/WX    TMP DP  RH WIND       PRES   REMARKS
STAUNTON*      MOCLDY    80  65  60 CALM      30.00R
WAYNESBORO*    FAIR      77  68  75 W5        30.00R
HOT SPRINGS VA MOCLDY    67  63  86 NW5       30.11R
LYNCHBURG      PTCLDY    76  72  87 SW5       29.99R
DANVILLE       MOCLDY    74  68  81 NE5       29.99S
SOUTH BOSTON*  FAIR      75  71  86 MISG      29.98R
MARTINSVILLE   PTCLDY    78  69  74 CALM      30.01R
ROANOKE        MOCLDY    79  66  64 W5        30.01R
BLACKSBURG     MOCLDY    74  67  77 CALM      30.08R
DUBLIN*        MOCLDY    77  68  73 CALM      30.07R
MARION*        MOCLDY    69  65  87 W6        30.12R
HILLSVILLE*    MOCLDY    70  65  82 CALM      30.09R
RICHLANDS*     CLOUDY    69  67  94 CALM      30.10R
WISE*          CLOUDY    70  68  94 S5        30.10R
ABINGDON*      CLOUDY    73  68  86 SW3       30.08R
$$

MDZ021>025-VAZ099-100-050100-
SOUTHERN MARYLAND AND THE DELMARVA PENINSULA

CITY           SKY/WX    TMP DP  RH WIND       PRES   REMARKS
PATUXENT RIVER TSTM      73  71  93 S6        29.93F FOG
BAY BRIDGE APT   N/A     73  70  88 CALM      29.95R
LEONARDTOWN    CLOUDY    70  68  94 CALM      29.95F
DOVER          CLOUDY    73  68  84 SE7       29.94R
GEORGETOWN     MOCLDY    72  68  87 E8        29.96R
EASTON         NOT AVBL
CAMBRIDGE      CLOUDY    77  72  83 SE8       29.94R
SALISBURY      LGT RAIN  69  68  96 E6        29.95F FOG
OCEAN CITY     NOT AVBL
WALLOPS ISLAND MOCLDY    73  73 100 E10       29.95S
ACCOMACK*      CLOUDY    73  73 100 E5        29.94S
$$

NCZ012>017-030>032-050100-
NORTH CENTRAL AND EASTERN NORTH CAROLINA

CITY           SKY/WX    TMP DP  RH WIND       PRES   REMARKS
ROANOKE RAPIDS FAIR      81  72  74 SW8       29.97R
RALEIGH        MOCLDY    82  71  69 SW9       29.99R
ELIZABETH CITY PTCLDY    79  71  76 SW9       29.95S
AHOSKIE*       PTCLDY   N/A N/A N/A CALM      29.97R
EDENTON*         N/A     80  73  79 SW5       29.96S
CURRITUCK*     PTCLDY    81  67  63 SW7       29.96R
KILL DEVIL HLS PTCLDY    78  71  77 SW3       29.96S
MANTEO         PTCLDY    77  72  83 SW9       29.98R
CAPE HATTERAS  MOCLDY    79  73  82 SW16G22   30.00R
TARBORO*         N/A     83  72  69 SW3       29.98R
GOLDSBORO      MOCLDY    85  68  57 SW9       29.97R
WASHINGTON     PTCLDY    82  68  63 SW6       29.98S
GREENVILLE     PTCLDY    81  70  69 SW3       30.00R
NEW BERN       PTCLDY    84  66  54 SW8       30.01R
WILMINGTON     CLEAR     83  71  67 SW10      30.02R
$$

VAZ048-050100-
ELSEWHERE

CITY           SKY/WX    TMP DP  RH WIND       PRES   REMARKS
HARRISBURG PA  CLOUDY    69  64  84 CALM      29.98R FOG
BALTIMORE      CLOUDY    73  68  84 CALM      29.96R
ANNAPOLIS      CLOUDY    74  70  87 N6        29.95R
ANDREWS AFB    MOCLDY    72  72  99 NE3       29.95S
PHILADELPHIA   CLOUDY    72  62  71 NE8       29.98R
HENDERSON NC   PTCLDY    78  68  70 CALM      29.98R
GREENSBORO     MOCLDY    82  66  58 SW8       29.99R
ROCKY MOUNT    LGT RAIN  77  71  82 CALM      29.98R
$$

VAZ100-050100-
MARINE

STATION/POSITION TIME  TEMP    WIND        PRES    WAVE   SWELL
                       AIR SEA DIR/SP/G            HT/PER HT/PER
                 (UTC) (F)     (DEG/KT/KT) (MB)    (FT/S) (FT/S)
BRANDYWINE LGT   2300   73 74  130/ 13/ 14 1014.0R
CAPE MAY NJ      2300   73 77  100/  9/ 14 1013.5R
LEWES DE         2300   73 73  120/  7/  9 1014.0R
15NM E FENWICK I 2350   72 73              1014.2R   5/ 8
OCEAN-CITY-INLET 2300   74 76  120/  6/  9 1013.9R
WACHAPREAGUE VA  2300   76 83   60/  7/  9 1013.6R
THOMAS POINT MD  0000   75 77  360/  8/  9 1014.5
GOOSES REEF MD   0000   76 77  300/  6/  8 1014.8R
COVE POINT MD    2300   76     350/  5/  6 1013.9R
SOLOMONS ISLAND  2300      80                N/A
BISHOPS HEAD MD  2300   78     140/  7/  8 1013.3R
PINEY POINT MD   2300           10/ 26/ 31   N/A
CAMBRIDGE MD     2300   78 79   90/  5/  7 1013.4R
LEWISETTA VA     2300   78 80  160/  6/  7 1012.6R
RAPPAHANNOCK LGT 2300          170/  5/  6 1013.6R
STINGRAY PT      0000   80 81   CALM  /  4 1013.3R
YORK RVR RNG VA  2300   83     270/  6/  7 1012.5R
YORKTOWN VA      2300   83 80  260/  5/  7 1012.7R
JAMESTOWN VA     0000   77 83  290/ 21/ 27   N/A
DOMINION TERM VA 2300   84     260/ 10/ 11 1013.0R
KIPTOPEKE VA     2300      84   CALM  /  2   N/A
CHES BAY BRIDGE  2300   83 80  240/ 10/ 11 1012.6R
CAPE HENRY VA    2300   82     110/  4/  6   N/A
CHESAPEAKE LGHT  2300   78     110/  4/  6 1014.3R
WILLOUBY STN VA  2300   83     280/  8/ 10 1014.0R
CAPE HENRY BUOY  2328      78                N/A     3/ 8
1ST LANDING BUOY 0000      78              1013.2R   2/ 4
CAPE CHARLES BUO 2326      77                N/A     2/ 7   2/ 7
OFFSHORE WE BUOY 2311      78                N/A     4/ 7   3/ 7
64NM E OF VA BCH 2350   78 76  240/ 16/ 17 1013.4R   6/ 8   3/ 8
DUCK PIER NC     2300   80 74  240/ 13/ 16   N/A
44100 DUCK FRF   2324      78                N/A     3/ 8
44056 DUCK FRF   2311      77                N/A     2/ 8
OREGON INLET NC  2300   78 82  220/ 11/ 12 1014.9R
HATTERAS NC      2300   80 79  220/ 12/ 19 1015.4R
DIAMOND SHLS NC  2350   82 81  210/ 23/ 27 1015.5S   6/ 6   2/ 8
CAPE LOOKOUT NC  0000   81     210/ 13/ 17 1016.4R
$$



USA.gov is the U.S. government's official web portal to all federal, state and local government web resources and services.